Driv du Manikou 2018 le 23/06/2018

Recherche par Dossard : par Nom : par Club :

Place Dossard Nom Prenom Cat. Pl. Cat. Temps Club Sexe
1 779 BUREAU PIERRE SE 1 01:02:50 TEAM SOUFFLE ET ENERGY M
2 804 OGER NIELS SE 2 01:03:10 SA TOULOUSE UC M
3 411 JUSTIN ILLYA SE 3 01:03:31 AIGLON DU LAMENTIN M
4 732 GUENGANT HEATHCLIFF V1 1 01:04:31 AIGLON DU LAMENTIN M
5 523 HAJJI YAHIA V1 2 01:04:59 GOLDEN STAR M
6 520 ATALA JEAN MICHEL V2 1 01:05:50 GOLDEN STAR M
7 737 MELIS DIMITRI V1 3 01:07:27 M
8 836 JONCART MICHAEL SE 4 01:08:47 M
9 638 GARCIA FRANCOIS SE 5 01:10:03 RSMA M
10 413 DUFEAL JEAN LUC V2 2 01:10:20 AIGLON DU LAMENTIN M
11 410 BOMPAS GREGORY SE 6 01:10:43 AIGLON DU LAMENTIN M
12 134 FOURMONT JEAN BAPTISTE SE 7 01:11:02 M
13 486 MARIE JOSEPH PATRICK V2 3 01:11:13 GOLDEN LION ST-JOSEPH M
14 493 HO-CAN-SUNG OLIVIER SE 8 01:11:14 GOLDEN STAR M
15 203 COUTY ERIC V1 4 01:11:17 M
16 533 ARMANT DORIAN SE 9 01:13:48 L ASSAUT DE SAINT PIERRE M
17 485 MELLOT MARC V2 4 01:13:56 GOLDEN LION ST-JOSEPH M
18 860 TROMPETTE PASCAL SE 10 01:14:05 MAIRIE SPORTIVE M
19 545 TROMPETTE FREDERIC SE 11 01:14:06 MAIRIE SPORTIVE M
20 782 SAUVAGNAC XAVIER V2 5 01:14:09 CLUB MANIKOU ORGANISATIONS M
21 229 ADAM ANTOINE SE 12 01:14:18 M
22 377 BOUDEHEN LAURENT SE 13 01:14:18 M
23 821 MONROSE MEHDI SE 14 01:14:37 M
24 448 LACRAMPE LOUIS-FELIX V2 6 01:14:40 CLUB MANIKOU M
25 528 MAYNE GEOFFROY SE 15 01:14:51 GR|TRAINING M
26 367 ARTHUR LUDOVIC V1 5 01:14:55 M
27 422 MAREM AUGUSTIN V2 7 01:14:56 AMCF M
28 632 MELT JEAN MICHEL V1 6 01:14:58 WINNER TEAM M
29 700 ALONZEAU FABRICE V1 7 01:14:59 NON LICENCIE M
30 217 JONCART JUDES V1 8 01:15:02 M
31 522 DASSE-VINAY LIONEL V2 8 01:15:38 GOLDEN STAR M
32 591 DESMAZON ERIC SE 16 01:15:43 ReNOVATION DE AUGRAIN M
33 487 MERTON GUY V1 9 01:15:48 GOLDEN LION ST-JOSEPH M
34 559 SALVADOR EDDY V1 10 01:16:12 MANIKOU M
35 750 LEMERY SIMON SE 17 01:16:18 GOLDEN STAR M
36 651 GAILLARD LEO SE 18 01:16:21 AIGLON DU LAMENTIN M
37 772 MOUTAMALLE MARC V1 11 01:16:30 MAIRIE S. (FT-DE-FRANCE) M
38 865 DEGRAS ALAIN V1 12 01:17:03 M
39 498 ZERHOUNI DJEBRINE V2 9 01:17:25 GOLDEN STAR M
40 128 MORVAN ANTOINE SE 19 01:17:41 M
41 464 DORIZON JERRY V1 13 01:18:03 CLUB MANIKOU M
42 629 DORIZON MARVYN CA 1 01:18:03 U.S CANTENAY EPINARD M
43 235 PESLAGES NICOLAS SE 20 01:18:17 M
44 596 PUNU AUGUSTAVE SE 21 01:18:46 RSMAM M
45 157 PATARACH JOHAN SE 22 01:18:51 ASSAUT SAINT-PIERRE M
46 598 DEROUET JEAN-LUC V1 14 01:18:57 RSMA-M M
47 847 RE JEAN-LUC SE 23 01:19:07 M
48 391 BEAUJOLAIS MAURAY SE 24 01:19:10 M
49 478 EPHRITIKHINE IVAN SE 25 01:20:09 CSLG GENDARMERIE M
50 346 JEAN-MARIE FABRICE V1 15 01:20:12 M
51 335 LUCE MATHIEU V1 16 01:20:28 M
52 366 DUCATEZ ARNAUD V1 17 01:20:37 M
53 280 MELLOT CHARLES V3 1 01:20:44 M
54 837 MOSES OLIVIER V1 18 01:20:49 GOLDEN STAR M
55 762 FLOBINUS HENRIUS RODOLPHE V2 10 01:20:55 M
56 460 MICHERON GERALDINE V1 1 01:21:08 CLUB MANIKOU F
57 399 RONDEAUX DAVID SE 26 01:21:08 M
58 613 ROUBLIQUE ELISABETH V1 2 01:21:19 TCHIMBE RAID F
59 375 ALLAERT QUENTIN SE 27 01:21:32 M
60 718 MARIE-ANGELIQUE RODRIGUE RORO V1 19 01:21:43 AIGLON/TLT/MANIKOU/MAROSS M
61 635 RAFFIN CAMILLE V3 2 01:21:45 WINNER TEAM M
62 338 LANOIR MARVIN SE 28 01:21:45 M
63 484 MARCENY MERICK JU 1 01:21:53 GOLDEN LION ST-JOSEPH M
64 707 CAYOL EDDY V1 20 01:22:10 ASC SARA M
65 123 ELISEE JACQUES V1 21 01:22:24 M
66 226 ROUSSI BERTRAND V2 11 01:22:39 M
67 435 RABATHALY FRANTZ V1 22 01:23:03 AVENIR PELEEN M
68 352 THEODORE MARIUS V2 12 01:23:07 M
69 783 BOUTET YOANN SE 29 01:23:19 M
70 592 CHEMIR STANY V3 3 01:23:24 ReNOVATION DE AUGRAIN M
71 861 ROSTAMASE PIERRE-LOUIS V1 23 01:23:40 M
72 822 CAROTINE JEAN-LUC V2 13 01:23:45 WINNER- TEAM M
73 483 CAMPILLO CHRISTOPHE V1 24 01:23:48 M
74 845 BERGOT JEAN-CLAUDE SE 30 01:24:08 M
75 252 JEAN-BAPTISTE-ADOLPHE MIGUEL V1 25 01:24:12 M
76 634 POPAN THIERRY V2 14 01:24:21 WINNER TEAM M
77 513 HAJJI FAUSTINE V1 3 01:24:23 GOLDEN STAR F
78 412 LUCE JOSEPH V1 26 01:24:53 AIGLON DU LAMENTIN M
79 775 PESCHOUX ALEXIS SE 31 01:24:57 TEAM INTESPORT M
80 193 BLACODON MANUEL V2 15 01:25:01 M
81 117 ERICHER EDDY V2 16 01:25:12 M
82 744 GIGON-DESORMERIE LAURENT ES 1 01:25:39 LES BAROUDEURS M
83 407 VARISOT FABRICE V1 27 01:25:47 AIGLON DU LAMENTIN M
84 429 LACAVALERIE CEDRIC SE 32 01:25:52 ASSAUT SAINT-PIERRE M
85 430 AGASSEAU PHILIPPE SE 33 01:25:52 ASSAUT SAINT-PIERRE M
86 404 VARASSE VINCE V1 28 01:25:59 ACM M
87 800 BORRY BERNARD V1 29 01:26:08 MADININA BIKERS M
88 145 GORVIEN GILLES V1 30 01:26:10 M
89 64 MONDANGE THIBAULT SE 34 01:26:20 M
90 633 ARATUS MAX V3 4 01:26:21 WINNER TEAM M
91 441 LOUIS-JOSEPH ALAIN V3 5 01:26:25 CGOSH M
92 304 ANGLIONIN GILDAS V1 31 01:26:31 M
93 121 BIDOSSE DAVID V1 32 01:26:34 M
94 595 BUSCHBAUM DANIEL SE 35 01:26:34 RSMAM M
95 395 TESSIER LILIAN V1 33 01:26:44 M
96 543 DESSERPRIT PASCALE V2 1 01:26:58 MAIRIE SPORTIVE F
97 694 GOLBRY BRUNO V2 17 01:27:09 M
98 685 CHARLEC FeLIX V3 6 01:27:09 MANIKOU M
99 61 JARRIN ISMAËL V1 34 01:27:21 M
100 562 BRACO GRATIEN V2 18 01:27:26 MANIKOU M
101 730 CAPRON JOSEPH V1 35 01:27:34 M
102 785 COURANT GUY V3 7 01:27:35 CLUB MANIKOU M
103 780 LILLO ERIC V2 19 01:27:35 ACP MARSEILLE M
104 770 LEVIONNOIS JEAN-LUC V2 20 01:27:54 M
105 586 GOURIN YANNICK V1 36 01:27:55 MARINE NATIONALE M
106 754 HIERSO MATHYEUX SE 36 01:27:58 M
107 597 GRANCOIN ANTHONY SE 37 01:28:09 RSMA-M M
108 587 AGNOLY FRANÇOIS V2 21 01:28:15 MORNE CARETTE M
109 683 DISPAGNE GREGORY SE 38 01:28:15 AIGLON DU LAMENTIN M
110 601 GARNIER CYRILLE V1 37 01:28:20 RUN 972 M
111 578 CANTAREL SYLVAIN SE 39 01:28:25 MARINE M
112 713 DE VASSOIGNE ANTHONY V2 22 01:28:27 M
113 85 MONTHEARD REBECCA V1 4 01:28:28 F
114 420 KERMOISON ALEX V2 23 01:28:36 AMCF M
115 2 QUESNEL YANNICK V2 24 01:28:39 M
116 341 PINAT CYRIL SE 40 01:28:54 M
117 402 BARTIS JEAN JOSEPH V3 8 01:29:03 A C MARIN M
118 784 PERRARD KEVIN SE 41 01:29:08 M
119 792 BOUCHAREB KADER V1 38 01:29:12 M
120 406 COUCOULIS DIDIER V1 39 01:29:12 AIGLON DU LAMENTIN M
121 274 GATELIER WILFRIED SE 42 01:29:16 M
122 389 FREYERMUTH NICOLAS SE 43 01:29:20 M
123 101 VIGNe WILEM SE 44 01:29:21 M
124 672 FABREGUES JEROME V1 40 01:29:41 TCHIMBE RAID M
125 569 LEFEUVRE MALO SE 45 01:29:41 MARINE M
126 189 CHARLERY RODOLPHE V2 25 01:29:52 M
127 742 PRIMOT EMMANUEL SE 46 01:29:55 M
128 118 HUMBERT PASCAL V1 41 01:30:00 M
129 414 LACLE LOUIS V1 42 01:30:02 AIGLON DU LAMENTIN M
130 636 TABAR RAYMOND V2 26 01:30:03 WINNER TEAM M
131 843 NERET RONY V1 43 01:30:21 M
132 237 MONTJEAN VERONIQUE SE 1 01:30:22 F
133 267 MINAR JEAN-MAX V1 44 01:30:24 M
134 656 JONCART CLAUDE V1 45 01:30:42 ATHLETIC CLUB SALEEN M
135 855 VARSOVIE JIMMY SE 47 01:30:48 M
136 561 PELAGE FRED V2 27 01:30:51 MANIKOU M
137 357 LE SAUX REGIS V1 46 01:30:51 M
138 575 PEDROT GAETAN SE 48 01:30:57 MARINE M
139 171 FERREIRA THIERRY V1 47 01:31:00 M
140 842 COUTURE SAMUEL SE 49 01:31:09 M
141 115 DRAKE-BROCKMAN ALAN SE 50 01:31:16 M
142 403 TEVENET-BAH SANDRINE V1 5 01:31:27 AARSMAM F
143 590 MONLOUIS-BONNAIRE CECILE V3 1 01:31:55 POLICE SPORTIVE F
144 286 GIBARROUX VERONIQUE EDENAH V2 2 01:31:56 F
145 153 PINCET PIERRE ADRIEN SE 51 01:32:03 M
146 178 BARAL ANGELIN V3 9 01:32:03 M
147 571 LOZANO PHILIPPE SE 52 01:32:15 MARINE M
148 819 DE LA BRETESCHE GEOFFROY SE 53 01:32:15 M
149 547 ROSE RAYMOND V2 28 01:32:29 MAIRIE SPORTIVE M
150 88 JOLLY MATTHIEU V1 48 01:32:33 M
151 621 HILLION CLAUDE V2 29 01:32:40 TCHIMBE RAID M
152 374 HILMOINE JEAN-MICHEL V1 49 01:32:40 M
153 866 DI CHIARA MAGGIOLI LUCA V1 50 01:32:43 M
154 787 PRIDEAU MARTINE SE 2 01:32:46 F
155 818 SIBADO ALBERT V2 30 01:32:46 M
156 602 LANSADE ALEXANDRE SE 54 01:32:54 SAM HORIZON 2000 M
157 220 BEQUET GeRALDINE V1 6 01:32:55 F
158 701 CHARLES-JOSEPH eDOUARD V3 10 01:32:56 M
159 69 ESTEVEZ THOMAS SE 55 01:32:57 M
160 293 VALIAME VALENTIN V1 51 01:33:00 M
161 423 ELOISE JEAN-MARC V3 11 01:33:01 AMCF M
162 563 RISKWAIT CARINE V1 7 01:33:02 MANIKOU TLT972 F
163 380 MANYRI JACQUES FRANCOIS V1 52 01:33:11 M
164 265 CROTET MATHIEU SE 56 01:33:12 M
165 444 ROMER LOUISIANE V2 3 01:33:13 CLUB FRANCISCAIN F
166 443 CORLET GUY-GEORGES V2 31 01:33:13 CLUB FRANCISCAIN M
167 691 FERGON PIERRE SE 57 01:33:16 M
168 512 BONHEUR JACQUES-MICHEL SE 58 01:33:35 GOLDEN STAR M
169 313 TOUZOULI DELPHINE SE 3 01:33:37 F
170 112 GELLYNCK FABRICE SE 59 01:33:40 M
171 835 COUDIN EDDY V1 53 01:33:42 M
172 606 SIRIEIX GeRALDINE V1 8 01:33:44 F
173 759 CROISY PATRICK V2 32 01:33:52 M
174 637 DUPELIN- LALUNG LUANA SE 4 01:34:09 F
175 202 VISENTIN LAURENT V1 54 01:34:10 M
176 552 JEANNE ROSE CARINE V2 4 01:34:11 MAIRIE ST JOSEPH F
177 525 FAGOUR LAURENCE V1 9 01:34:19 GOLDEN STAR F
178 652 BULLET ALEX V3 12 01:34:22 M
179 241 MONGIS JEAN MICHEL V2 33 01:34:26 M
180 554 MELKI EMILE V1 55 01:34:36 MANIKOU M
181 248 FABRICIUS MATTHIAS SE 60 01:34:38 M
182 631 MARGUERITE JEAN-MAX V2 34 01:34:40 VAUCLIN ATHLETIC CLUB M
183 384 TIBERNUS GEORGES V2 35 01:34:40 M
184 451 PANCALDI MARIE-GEORGES V2 5 01:34:43 CLUB MANIKOU F
185 581 ELUECQUE ERIC V1 56 01:34:49 MARINE M
186 850 RALAISOMAY NATACHA SE 5 01:34:51 F
187 492 DE FRANCIOSI PHILIPPE V2 36 01:35:09 GOLDEN STAR M
188 834 LUCIDARME ERIC V2 37 01:35:12 M
189 92 FROMAGER TONY SE 61 01:35:18 M
190 747 FORGARD GERMAIN V2 38 01:35:30 FR MORNE PITAULT M
191 531 VIRAYIE JEAN V2 39 01:35:38 L ASSAUT DE SAINT PIERRE M
192 392 STEFANETTO GEOFFREY SE 62 01:35:39 M
193 356 VIALETTE JERÔME SE 63 01:35:43 M
194 433 SOUNDOROM RODRIGUE SE 64 01:35:45 ATHLETIC CLUB SALEEN M
195 535 ROUBLIQUE JULES CA 2 01:35:56 LES BAROUDEURS MARTINIQUE M
196 409 MADELENAT JEAN-CHARLES V1 57 01:36:01 AIGLON DU LAMENTIN M
197 139 MACARONUS RONY V1 58 01:36:05 M
198 326 BRENEOL DENIS V1 59 01:36:09 M
199 255 COUSSINOUX AUDE V1 10 01:36:19 F
200 149 EDMOND PHILIPPE V1 60 01:36:21 M
201 212 AMBROISINE JEAN-LOĎC V1 61 01:36:21 M
202 191 BEAUDREUIL JEAN-MICHEL SE 65 01:36:40 M
203 465 HENRY LAURENT V2 40 01:36:40 CLUB MANIKOU M
204 577 THIBAULT BENJAMIN SE 66 01:36:48 MARINE M
205 107 SABIN OLIVIER V1 62 01:36:50 M
206 65 MARRAUD DES GROTTES FABRICE V1 63 01:36:54 M
207 331 GRILLON SAMUEL V1 64 01:36:56 M
208 616 VALVERDE PHILIPPE V1 65 01:37:00 TCHIMBE RAID M
209 376 D HUBERT SVEN V1 66 01:37:04 M
210 372 eGeSIPE JULES V3 13 01:37:04 M
211 222 EMPIS SEBASTIEN V1 67 01:37:05 M
212 869 SALOME FREDERIC SE 67 01:37:05 M
213 622 MONVILLE-LETU MANUEL V2 41 01:37:06 TCHIMBE RAID M
214 76 MARTON JIMMY SE 68 01:37:24 M
215 833 WEISS YOHAN SE 69 01:37:25 M
216 702 BAUDIN LUCIEN V2 42 01:37:26 TCHIMBE RAID M
217 175 GLONDU MIGUEL V2 43 01:37:33 M
218 611 LAHAEYE FREDERIC V1 68 01:37:34 SQUALE CLUB SAINTE LUCE M
219 710 CRATERE DANIEL V2 44 01:37:36 ASC SARA M
220 661 GUILLORIT AGNES V2 6 01:37:37 F
221 319 BESSERER PIERRE SE 70 01:37:41 M
222 746 THOMASI JOSE V3 14 01:37:59 FR MORNE PITAULT M
223 733 TRAVAIN EMMANUELLE V1 11 01:38:04 RUN972 F
224 618 LOUISE FRED V2 45 01:38:14 TCHIMBE RAID M
225 593 PHULPIN NICOLAS V1 69 01:38:16 RSMA M
226 832 EKOMIE YOHANN SE 71 01:38:18 GOLDEN STAR M
227 657 GIBERNE DENIS V2 46 01:38:21 M
228 396 REGIS MATTHIEU SE 72 01:38:24 M
229 373 PAMAROT SILVČRE SE 73 01:38:26 M
230 558 MURTE JOSETTE V2 7 01:38:28 MANIKOU F
231 717 COURONNEAUD BRUNO V2 47 01:38:32 M
232 647 AGASTIN NICOLAS SE 74 01:38:33 M
233 846 BOULANGER JEAN-CLAUDE SE 75 01:38:38 EFFORT MORNE PITAULT M
234 186 COM JULIE SE 6 01:38:46 F
235 809 HENRY JOANE V1 12 01:38:55 F
236 417 CLOTAIL HERVE V2 48 01:38:59 AMCF M
237 662 BASSET-MENS CLAUDINE V1 13 01:39:01 AIGLON DU LAMENTIN F
238 477 LELIEVRE JEAN EUDES ES 2 01:39:06 CLUBSPORT M
239 540 JOSEPH-MeReLIX PHILIPPE V2 49 01:39:13 LES PIRATES DE L ANSE MADAME M
240 711 BELROSE GERVAIS V3 15 01:39:15 ASC SARA M
241 604 CHARODIN MICHEL V1 70 01:39:18 SAM HORIZON 2000 M
242 778 RAYMOND JEAN LUC V2 50 01:39:25 M
243 839 KOWALSKI DOMINIQUE V2 51 01:39:25 AMCF M
244 864 PAKO ALICK V2 52 01:39:30 M
245 95 LACLEF OLIVIER V1 71 01:39:32 M
246 823 JUMETZ ERIC V2 53 01:39:41 M
247 753 PERASTE GERARD V3 16 01:39:41 AMCF M
248 214 CHEMIN CATTHALEN SE 7 01:39:44 F
249 697 BRITHMER MATHIAS V2 54 01:39:44 AMCF M
250 729 BAZABAS NEFERTI V1 14 01:39:46 F
251 564 PULVAL-DADY THIERRY V1 72 01:39:47 MAIRIE SPORTIVE M
252 427 DE ROGATIS FRANCOIS V3 17 01:39:59 ASCO INTER ATLAS M
253 765 ANIN WILLIAM SE 76 01:40:06 SAM HORIZON 2000 M
254 738 LEGENDRY LIONEL V1 73 01:40:10 M
255 594 BEGAT TONY V1 74 01:40:11 RSMAM M
256 541 LHERIAU JORDAN SE 77 01:40:12 LES TRAILERS DU 44 M
257 263 RENOU DAVID SE 78 01:40:13 M
258 495 LONDE MAURICE V1 75 01:40:14 GOLDEN STAR M
259 862 ESARD EDDY V1 76 01:40:14 GOLDEN STAR M
260 26 RAGOT ERICK V1 77 01:40:21 M
261 209 TELCIDE CHRISTIAN V3 18 01:40:21 M
262 210 MICHELIN SONIA V1 15 01:40:22 F
263 234 MOSBAHI CHRISTOPHE V2 55 01:40:42 M
264 19 CIDALISE-MONTAISE FRANCK-OLIVIER V1 78 01:40:42 M
265 354 ROBERT TRAEGER FABRICE SE 79 01:40:46 M
266 58 PIERRE-LOUIS PATRICK V2 56 01:40:48 M
267 553 CERTAIN JACQUES V2 57 01:40:52 MAIRIE ST JOSEPH M
268 328 SALVIN MANUEL SE 80 01:40:53 M
269 104 GREMONT ROMAIN SE 81 01:40:54 M
270 724 BLANCHET HAROLD V1 79 01:40:57 M
271 77 ADENET ALTON DINO SE 82 01:40:57 M
272 776 COLLE HELENE V1 16 01:40:59 F
273 642 SBRIZZI FREDERIC V1 80 01:41:00 M
274 481 CHOUX CAROLE SE 8 01:41:15 ESPOIR SAINTE LUCE F
275 777 RANNOU CEDRIC V1 81 01:41:19 M
276 54 MANGIN NATHALIE SE 9 01:41:26 F
277 68 VIGERAL JULIEN SE 83 01:41:26 M
278 219 MORIN KELIAN JU 2 01:41:27 M
279 728 HOULLIER TONNY V1 82 01:41:38 M
280 365 GUY PATRICE V1 83 01:41:40 M
281 337 FOUQUET YANN V1 84 01:41:42 M
282 259 LEGRAND HERVE V1 85 01:41:43 M
283 79 FILIN-BAUWENS JASMINE SE 10 01:41:43 F
284 246 PAOLA VALERY V1 86 01:41:49 M
285 655 RAYR JeRÔME V1 87 01:41:52 M
286 626 RONDEAUX EMILIE SE 11 01:41:59 TEAM BABILON F
287 749 ROCHE JEAN-MARC V1 88 01:42:02 RENOVATION AUGRAIN M
288 137 ROSSIGNOL RUBAL STePHANIE SE 12 01:42:19 F
289 820 MARTINON GABY V2 58 01:42:28 MANIKOU/TLT M
290 461 GEKIERE CYRIL V1 89 01:42:30 CLUB MANIKOU M
291 160 MARIE-CATHERINE TEDDY V1 90 01:42:30 M
292 527 LE BORGNE DANIEL V1 91 01:42:35 GPMLM M
293 1 FLEURY GHISLAINE SE 13 01:42:38 F
294 148 EDMOND SANDRA V1 17 01:42:41 F
295 147 SALAUN OLIVIER SE 84 01:42:43 M
296 215 CHARLES FRANCOIS V1 92 01:42:47 M
297 143 MONVILLE ALEXIS ES 3 01:42:49 M
298 44 LEFEBVRE LAURENT SE 85 01:42:52 M
299 36 YANG TING JEAN LOUIS V2 59 01:42:55 M
300 659 SYLVESTRE DIDIER V1 93 01:42:56 SAM HORIZON 2000 M
301 807 ASSEGHLI RACHID V1 94 01:42:57 M
302 348 RAVIN CATHIA V1 18 01:43:01 F
303 231 MULLER PASCAL V2 60 01:43:05 M
304 38 BASSIEN-CAPSA PHILIPPE V1 95 01:43:07 M
305 425 DORIN DAVID V1 96 01:43:09 AS RFO 972 M
306 206 VAN DROOGENBROECK AUDE V1 19 01:43:25 F
307 474 VETRAL ERIC V2 61 01:43:25 CLUB MANIKOU TLT M
308 126 ROUX SEB V1 97 01:43:29 M
309 238 BELLEAU LAURENT V2 62 01:43:42 M
310 714 GAUDEUL RENAUD V1 98 01:43:44 M
311 312 CLAROUS THOMAS SE 86 01:43:45 M
312 87 GIACOMETTI JACQUES V3 19 01:43:45 M
313 300 MARTY SEBASTIEN V1 99 01:43:50 M
314 120 DEROTUS SAMUEL V2 63 01:43:53 M
315 106 VILLAGEOIS ANNICK V2 8 01:43:53 F
316 89 PEREZ-GARCIA SEBASTIEN V1 100 01:43:56 M
317 664 RAUMEL CHRISTIAN V2 64 01:44:12 GOLDEN STAR M
318 428 VERT-PRE LUCAS ES 4 01:44:22 ASSAUT SAINT-PIERRE M
319 868 LUST MARIE SE 14 01:44:22 F
320 538 LAGUERRE HERVE V2 65 01:44:24 LES BAROUDEURS MARTINIQUE M
321 723 LOUIS-JOSEPH MICHAEL V1 101 01:44:24 LES BAROUDEURS MARTINIQUE M
322 722 ZOZIME JEAN-PAUL V2 66 01:44:29 M
323 363 DOReE DAVID V1 102 01:44:31 M
324 756 ELOISE CHANTAL V1 20 01:44:31 F
325 797 PHEBIDIAS TANIA V2 9 01:44:37 AMCF F
326 851 MOSSIERE JACQUES-OLIVIER V2 67 01:44:56 M
327 211 MARCET JEAN-FRANCOIS V2 68 01:44:57 M
328 434 HANNIBAL PATRICK V1 103 01:44:58 ATHLETIC CLUB SALEEN M
329 817 GAU JEAN-FRANCOIS SE 87 01:45:00 M
330 840 DEFOI LUCE V2 10 01:45:02 CTR F
331 542 GROS JEAN-MICHEL SE 88 01:45:02 MADININA BIKERS M
332 560 DELPHINE EMMANUELLE V1 21 01:45:03 MANIKOU F
333 510 ROGES JOCELYN V3 20 01:45:25 GOLDEN STAR M
334 24 JEANVILLE FRED BRICE V1 104 01:45:26 M
335 795 CALVET DIDIER V1 105 01:45:27 M
336 805 DELABIE PIERRE SE 89 01:45:32 M
337 299 BIRON DANIEL V2 69 01:45:39 M
338 151 VALDOR BRICE SE 90 01:45:45 M
339 521 DASSE-VINAY CLeMENCE JU 1 01:45:50 GOLDEN STAR F
340 340 CARAZA PAUL V2 70 01:45:50 M
341 301 BAURAS YANNICQUES V2 11 01:45:59 F
342 630 VANDESTOC CAMILLE SE 91 01:46:04 M
343 339 THEODORE ALAIN V2 71 01:46:04 M
344 317 RAVAUD PATRICK V1 106 01:46:06 M
345 125 HELOISE CLAUDE V2 72 01:46:12 M
346 135 GALY MARYSE V1 22 01:46:13 F
347 275 AGOT MONEL SE 92 01:46:13 M
348 824 IINUMA EMIKO V1 23 01:46:21 CLUB MANIKOU ORGANISATIONS F
349 529 BOYER PIERRE V1 107 01:46:24 KAWANN TRIATHLON CLUB M
350 576 ROBIC OLIVIER V1 108 01:46:30 MARINE M
351 332 SAINT-LOUIS JEAN-MARC V1 109 01:46:32 M
352 49 MENIR BERNARD V1 110 01:46:33 M
353 310 HAUSTANT THIERRY V2 73 01:46:35 M
354 726 VARISOT JESSICA V1 24 01:46:45 F
355 605 LORENZINI PHILIPPE V3 21 01:46:45 M
356 240 LOUISON JEAN-MICHEL V2 74 01:46:49 M
357 530 BELFIT LUDOVIC SE 93 01:46:56 KAWANN TRIATHLON CLUB M
358 608 FOLLIET ELSA SE 15 01:47:00 SQUALE CLUB F
359 13 GUISSET PASCALE V2 12 01:47:07 F
360 379 PERONET JEAN-PIERRE V2 75 01:47:07 M
361 419 GOUNOUMAN CLAUDE V3 22 01:47:14 AMCF M
362 810 HEVIN JEAN FRANCOIS V2 76 01:47:15 M
363 194 DE LEPINE RUDY SE 94 01:47:16 M
364 207 ODONNAT FERNAND V2 77 01:47:27 M
365 798 ROCHER JEROME V1 111 01:47:31 M
366 739 CONFIANT KARIM SE 95 01:47:34 M
367 539 DOUVILLE KEVIN JU 3 01:47:36 LES BAROUDEURS MARTINIQUE M
368 227 MALOUINES LOIC V1 112 01:47:38 M
369 550 RAPHA DANNY V3 2 01:47:42 MAIRIE SPORTIVE F
370 199 TRUMEAU SYLVAIN SE 96 01:47:43 M
371 781 BARET LAETITIA V1 25 01:47:50 F
372 43 GREINER ELSA SE 16 01:47:57 F
373 766 EUCAR JEAN MICHEL V2 78 01:47:57 M
374 42 MERCADAL CEDRIK SE 97 01:47:57 M
375 677 FERRY FReDeRIC V1 113 01:48:01 M
376 278 BEAUCHENE DENIS V1 114 01:48:04 M
377 639 NIVORE JONATHAN SE 98 01:48:13 M
378 418 FOREST DANIEL V2 79 01:48:13 AMCF M
379 703 CAYOL STEPHANE SE 99 01:48:28 ASC SARA M
380 155 FERRAH AXEL ES 5 01:48:35 M
381 91 BURE GEORGES V2 80 01:48:43 M
382 284 ADELE JOREL V3 23 01:48:45 M
383 59 FERCOT MICKAEL SE 100 01:48:48 M
384 589 MARIE-SAINTE MARCEL V2 81 01:48:58 OSONS DECOUVRIR M
385 684 SIMPHOR DIDIER SE 101 01:49:00 M
386 769 DEVOS ANTOINE V1 115 01:49:01 M
387 579 DUBOS CLEMENT SE 102 01:49:07 MARINE M
388 224 ROSINE VIRGINIE V1 26 01:49:13 F
389 93 BOIS MARC-OLIVIER SE 103 01:49:26 M
390 514 MORTON JEAN-MICHEL V1 116 01:49:37 GOLDEN STAR M
391 568 JEROME XAVIER V1 117 01:49:43 MARINE M
392 316 CILLA MANON V1 27 01:49:45 F
393 281 JEAN-LOUIS JOSIANE V1 28 01:49:49 F
394 324 MATILLON SIMeON V1 118 01:49:52 M
395 5 GERME MARIO V1 119 01:49:55 M
396 170 GRONDIN JEAN-FRANCOIS SE 104 01:49:55 M
397 351 ADJUTOR GEORGY V3 24 01:49:57 M
398 803 TRAVAILLEUR JEAN CLAUDE V2 82 01:50:13 AMCF M
399 14 PARIS PIERRE-HENRY SE 105 01:50:15 M
400 504 DHALLUIN REMI SE 106 01:50:15 GOLDEN STAR M
401 557 MICHEL MAX V4 1 01:50:23 MANIKOU M
402 506 VALVERDE RACHEL V1 29 01:50:24 GOLDEN STAR F
403 421 MARIE LUCE PIERRE V1 120 01:50:29 AMCF M
404 63 MALU DAVID SE 107 01:50:36 M
405 378 CYRILLE FERNAND V1 121 01:50:42 M
406 442 GAUTHERON BERENGERE SE 17 01:50:43 CLUB COLONIAL F
407 415 ARDES PHILIPPE V1 122 01:50:43 AMCF M
408 242 BRIAIS PATRICK V2 83 01:50:45 M
409 285 CHASTIN JEROME V1 123 01:50:45 M
410 459 MARQUISE KATE V2 13 01:50:49 CLUB MANIKOU F
411 264 MARRAUD DES GROTTES MARIE-PASCALE V1 30 01:50:52 F
412 625 DENORME ANNE SE 18 01:50:55 TEAM BABILON F
413 144 COROSINE WILLY V1 124 01:50:56 M
414 502 DUHAMEL CATHERINE V1 31 01:50:57 GOLDEN STAR F
415 359 LE GALL LUDIVINE SE 19 01:51:17 F
416 653 D ABADIE-DE-LUBRE MARIE-NELLY V1 32 01:51:22 SAM HORIZON 2000 F
417 225 EYCHENNE MARGAUX SE 20 01:51:23 F
418 272 GARCIAN ROUSSELLE DELPHINE V1 33 01:51:23 F
419 466 LAVILLE KARINE V1 34 01:51:23 CLUB MANIKOU F
420 320 ZUGMEYER FRANCOISE V1 35 01:51:26 F
421 158 LE ROUX CLAIRE SE 21 01:51:30 F
422 537 LE ROUX YANN SE 108 01:51:30 LES BAROUDEURS MARTINIQUE M
423 692 NICOLAS LECADRE SE 109 01:51:33 M
424 585 BOURGEOIS LOIC SE 110 01:51:50 MARINE M
425 515 MACED PHILIPPE V2 84 01:51:58 GOLDEN STAR M
426 671 MAXIMIN PATRICIA V2 14 01:52:06 ATHLETIC CLUB SALEEN F
427 610 ROUSSET JULIE SE 22 01:52:20 SQUALE CLUB F
428 305 ASTAMBIDE EDDY V1 125 01:52:23 M
429 813 COUSSAUD JOFFREY SE 111 01:52:24 M
430 488 ROBAR MARIE-LINE V1 36 01:52:32 GOLDEN LION ST-JOSEPH F
431 25 RAGOT FRANCK BERTRAND V1 126 01:52:33 M
432 208 FRIGNATI ISABELLE V2 15 01:52:42 F
433 385 PHAROSE SABRINA SE 23 01:52:52 F
434 826 VIGILANT LEON V1 127 01:52:52 TCHIMBE RAID M
435 526 JEAN-GILLES CELINE V1 37 01:52:54 GOLDENSTAR F
436 617 TALMANN ANDRE V4 2 01:52:58 TCHIMBE RAID M
437 473 GOLD DALG CATHERINE V2 16 01:52:58 CLUB MANIKOU F
438 66 MAILLARD GUILLAUME SE 112 01:53:08 M
439 449 LAVOUMA CLAUDIE V2 17 01:53:20 CLUB MANIKOU F
440 760 SIBADO GILBERT V3 25 01:53:24 M
441 28 EGA OLIVIER V1 128 01:53:24 M
442 150 BLAND CHRISTOPHE V1 129 01:53:29 M
443 482 BLAND-MURCIANO LAETITIA V1 38 01:53:29 F
444 288 TOP JEROME SE 113 01:53:38 M
445 71 TEPAUT MICHEL SE 114 01:53:38 M
446 369 BOURGAIN SeBASTIEN V1 130 01:53:39 M
447 283 SUEZPANAMA ERIC SE 115 01:53:42 M
448 615 TOUCHAIN ERWAN SE 116 01:54:01 TCHIMBE RAID M
449 51 MELEZAN KATHY SE 24 01:54:01 F
450 10 MERIAN NICOLAS V1 131 01:54:02 M
451 48 SAINTE-CROIX BeNeDICTE SE 25 01:54:02 F
452 250 CAILLET LAURENT V1 132 01:54:17 M
453 282 LE CURIEUX CLERVILLE CEDRIC V1 133 01:54:23 M
454 46 CORDIER FREDERIC V1 134 01:54:31 M
455 682 HILLION GeRARD V2 85 01:54:42 MANIKOU M
456 213 LE TURNIER NICOLAS SE 117 01:54:43 M
457 584 MARCHAND STEPHANE V1 135 01:54:44 MARINE M
458 223 MARTIN DIMITRI V1 136 01:54:47 M
459 432 TAUZIA MURIEL V2 18 01:54:55 ASSRFO972 ET TCHIMBE RAID F
460 607 SOUCHETTE FELIX V3 26 01:54:57 M
461 857 TELEPHE MICKAEL V2 86 01:55:01 M
462 74 SOLER CLeMENCE SE 26 01:55:01 F
463 674 COURTINARD JOSIANE V1 39 01:55:04 F
464 572 MOALIGOU MARIE-AUDE V1 40 01:55:04 MARINE F
465 276 BOUTRIN JILL SE 27 01:55:05 F
466 161 GUITTEAUD AUDREY SE 28 01:55:05 F
467 100 FONTAINE CATHERINE SE 29 01:55:05 F
468 72 MASSON DELPHINE V1 41 01:55:05 F
469 517 URSULET HARRY SE 118 01:55:06 GOLDEN STAR M
470 644 MOULONGUET PATRICE V1 137 01:55:07 M
471 172 COLOTROC JEAN PHILIPPE V2 87 01:55:18 M
472 3 FORNER FREDERIC SE 119 01:55:23 M
473 397 REGNIE MARIE-CHARLOTTE SE 30 01:55:26 F
474 802 LOUIS-FERDINAND RAYMOND V3 27 01:55:31 M
475 347 LAHOUSSAYE DUVIGNY MARIETTA V1 42 01:55:31 F
476 205 NAIDE ALAIN V3 28 01:55:32 M
477 501 FERDINAND PATRICK V2 88 01:55:33 GOLDEN STAR M
478 624 ADELON-TROMPETTE MARIE-NOELLE V2 19 01:55:33 TCHIMBE/TLT F
479 393 LANILIS DOMINIQUE V1 138 01:55:36 M
480 793 EDON JEAN-PHILIPPE SE 120 01:55:38 M
481 719 FLOERSHEIM MATHILDE V1 43 01:55:43 F
482 720 VILO DAVID V2 89 01:55:43 M
483 828 BOUGNEUX CLEMENT SE 121 01:55:44 M
484 184 ELOIDIN JACQUES V1 139 01:55:55 M
485 827 MITH PIERRE V2 90 01:56:03 M
486 269 JENASTE SANDRA SE 31 01:56:10 F
487 452 VANITOU SYLVETTE V2 20 01:56:18 CLUB MANIKOU F
488 499 GROS-DESORMEAUX MORJON SANDRINE V1 44 01:56:26 GOLDEN STAR F
489 239 DUBOC CHANTAL V1 45 01:56:26 F
490 789 LANCLAS MARIELLE V2 21 01:56:27 MANIKOU/TLT972/AMCF F
491 475 LERVAT CHRISTOPHE V2 91 01:56:30 CLUB SPORTIF MILITAIRE DE LA MARTINIQUE M
492 364 GALEA MARION SE 32 01:56:36 F
493 509 BOCHAIN BEATRICE V1 46 01:56:40 GOLDEN STAR F
494 110 ROSIER JEAN-MARC V1 140 01:56:44 M
495 21 POLI ALEXANDRE SE 122 01:56:53 M
496 146 SUAU SERGE V2 92 01:56:56 M
497 467 VIGOUROUX OLIVIER V2 93 01:57:04 CLUB MANIKOU M
498 687 SYMPHOR STEPHANE V1 141 01:57:12 SAM HORIZON 2000 M
499 156 DUFAY PAUL SE 123 01:57:13 M
500 675 FABREGUES MARIE LAURE V1 47 01:57:14 F
501 773 ANTIBE JACQUES V2 94 01:57:15 M
502 446 MAGDELEINE YVETTE V2 22 01:57:18 CLUB MANIKOU F
503 811 LE DELLIOU YVES V2 95 01:58:15 M
504 745 BOMBLE CAROLE SE 33 01:58:30 F
505 556 MAGDELEINE ALEXANDRE V3 29 01:58:42 MANIKOU M
506 716 EDON FRANCOIS-GATIEN V3 30 01:58:56 M
507 663 JEANNY6EVARISTE ANNICK SE 34 01:59:01 F
508 870 GREGOIRE CHRISTINE V1 48 01:59:02 F
509 468 ASTAMBIDE THIERRY V2 96 01:59:02 CLUB MANIKOU M
510 159 CHERY REMI V2 97 01:59:07 M
511 673 JEANNE-ROSE VALERIE V1 49 01:59:08 F
512 518 JENNINGS-CRESSAN KERRIE-LEE V1 50 01:59:18 GOLDEN STAR F
513 643 DARCHE LOUIS SE 124 01:59:29 M
514 416 OUENSANGA PATRICK V2 98 01:59:33 AMCF M
515 268 MARTIN PIERRE V2 99 01:59:39 M
516 599 SASSI AIMEN SE 125 01:59:42 RSMA-M M
517 94 TASSIS MARIO SE 126 01:59:42 M
518 179 SMERALDA MARIE-AIMEE V1 51 01:59:43 F
519 612 DOWLING-CARTER HENRY V2 100 01:59:54 TCHIMBE RAID M
520 447 ROSE-APOLINE MAX V2 101 01:59:56 CLUB MANIKOU M
521 743 BOURDACHE OLIVIER V2 102 01:59:56 M
522 790 TALAZAC SOPHIE SE 35 02:00:07 F
523 693 BORDAS EDITH SE 36 02:00:07 F
524 164 MILOT SYLVIAN V1 142 02:00:19 M
525 580 DUCLOS STEPHANE ES 6 02:00:19 MARINE M
526 81 JOLY SEBASTIEN SE 127 02:00:22 M
527 18 CIDALISE-MONTAISE SANDRA V1 52 02:00:28 F
528 306 SURBON PATRICK V2 103 02:00:59 M
529 344 RASCAR JEAN-FRANCOIS V1 143 02:01:00 M
530 45 PICOT MAGALI SE 37 02:01:15 F
531 16 JEAN-LAURENT ELISE SE 38 02:01:15 F
532 11 MEGHIT-DELPECH FATIHA V1 53 02:01:15 F
533 90 ANGELIE BEATRICE V1 54 02:01:16 F
534 532 MARAJO VIRAYIE ODILE V2 23 02:01:27 L ASSAUT DE SAINT PIERRE F
535 431 FILET DENISE V1 55 02:01:27 ASSAUT SAINT-PIERRE F
536 353 FANNIS BEATRICE SE 39 02:01:27 F
537 116 ERICHER MARILYNE V1 56 02:01:34 F
538 165 MACE LOIC V2 104 02:01:42 M
539 221 MONDONNEIX VERONIQUE V3 3 02:01:45 F
540 801 SEVELE JEAN-CHRISTOPHE SE 128 02:01:55 L EFFORT MORNE-VERT M
541 180 LOUISY LOIC V1 144 02:02:03 M
542 516 LECLUSE BENEDICTE V1 57 02:02:09 GOLDEN STAR F
543 511 PAUL-JOSEPH SANDRINE V1 58 02:02:18 GOLDEN STAR F
544 247 CLOE JEAN LOUIS V1 145 02:02:26 M
545 825 RICHEPI MURIEL SE 40 02:02:32 F
546 640 MARIE-JOSEPH ALBERT V2 105 02:02:40 M
547 871 GHEMOURI FARIDA V1 59 02:02:46 F
548 390 DIDIER DELPHINE SE 41 02:02:53 F
549 345 LUCIEN MAX V2 106 02:02:56 M
550 400 JEAN GILLES HERVe V1 146 02:03:01 M
551 401 NARDOL JONATHAN SE 129 02:03:02 M
552 260 FRADET CHARLOTTE SE 42 02:03:10 F
553 218 VOGLER AUReLIE SE 43 02:03:11 F
554 470 JULIUS KARINE SE 44 02:03:11 CLUB MANIKOU F
555 668 MAIMBOURG ALAIN V1 147 02:03:17 M
556 727 HENRY CLAUDETTE V1 60 02:03:29 F
557 228 HODE CORALIE SE 45 02:03:29 F
558 270 VELLY SOLČNE SE 46 02:03:40 F
559 127 RAUL JEAN-JACQUES SE 130 02:03:51 M
560 534 LE MERCIER ARNAUD V1 148 02:04:10 M
561 124 PAGEAUD ANNE V1 61 02:04:10 F
562 131 LE MERCIER SYLVIE V1 62 02:04:10 F
563 55 MANGIN MARC V2 107 02:04:14 M
564 424 GALLET DE SAINT-AURIN CHRISTOPHE V1 149 02:04:14 ANTILLES DIAG M
565 111 BONNIN AUDREY V1 63 02:04:19 F
566 669 CHEVALLIER CARLINE V2 24 02:04:21 F
567 262 BANCONS ANAIS SE 47 02:04:22 F
568 666 MUCRET STEPHANIE SE 48 02:04:38 F
569 78 MARIE-MAGDELAINE AUDREY SE 49 02:04:41 F
570 233 MOSBAHI SOPHIE V2 25 02:04:47 F
571 232 COLAS CeLINE V1 64 02:04:47 F
572 261 BANCONS PIERRE SE 131 02:04:48 M
573 524 LOUISE-PALIX BRIGITTE V2 26 02:04:58 GOLDEN STAR F
574 440 DELAGE SOPHIE V1 65 02:05:01 CG OEUVRES SOCIALES HOSPITALIERES F
575 22 POLI INGRID SE 50 02:05:17 F
576 741 MARIE MAGDELEINE JOFFREY SE 132 02:05:17 M
577 236 MILIN JEAN-LUC V2 108 02:05:29 M
578 791 RADENKOVIC SACHA V1 150 02:05:33 M
579 763 NAYARADOU MAX V2 109 02:05:37 M
580 198 BOUe PASCALINE SE 51 02:05:47 F
581 132 LECOMTE GAELLE V1 66 02:05:50 F
582 133 LECOMTE LIONEL V2 110 02:05:50 M
583 183 DEFOURNEL JULIE SE 52 02:05:50 F
584 244 PERION JACQUES V1 151 02:05:58 M
585 185 HENRI ELODIE SE 53 02:05:59 F
586 394 JUSTE JEAN-MARC SE 133 02:06:20 M
587 349 RINTO SABRINA V1 67 02:06:24 F
588 872 BASCOU PHILOMENE V2 27 02:06:24 F
589 574 MOUREAUX YANN V1 152 02:06:29 MARINE M
590 40 VILBOURG RAPHAEL V2 111 02:06:37 M
591 295 GARNIER LIONEL V1 153 02:06:37 M
592 623 RIMBAUD MICHEL V3 31 02:06:38 TCHIMBE RAID M
593 567 HOARAU JESSICA SE 54 02:06:39 MARINE F
594 333 SAINT CYR JC V2 112 02:06:50 M
595 169 ENOS LAETITIA SE 55 02:06:51 F
596 168 POIRET NICOLAS V1 154 02:06:52 M
597 388 CATHERINE ELIANE V2 28 02:06:53 F
598 712 VOYER FREDERICK SE 134 02:06:55 M
599 162 MENDES CARLOS V1 155 02:07:10 M
600 603 DIALLO JUDITH V1 68 02:07:12 SAM HORIZON 2000 F
601 204 BELLEMARE ANGEBERT V2 113 02:07:17 M
602 705 BLAMEBLE EBRING KATIA V1 69 02:07:26 ASC SARA F
603 455 GROSPERRIN GUY V2 114 02:07:30 CLUB MANIKOU M
604 641 COM ANNICK V2 29 02:07:53 F
605 609 BUISSIER LAURENT V1 156 02:08:13 SQUALE CLUB M
606 182 BRICE EDDY V1 157 02:08:19 M
607 755 ELOISE JEAN-MICHEL V1 158 02:08:19 M
608 254 PRIVAT SARAH SE 56 02:08:30 F
609 648 SIBADO JESSICA SE 57 02:08:37 F
610 814 LEBEL CHRISTELLE SE 58 02:08:48 F
611 342 HUYGHUES DES ETAGES PHILIPPE V1 159 02:08:54 M
612 34 VICTOR DANIEL V2 115 02:08:54 M
613 764 DECAESTEKER JULIE SE 59 02:09:25 F
614 863 TRAMIS CHARLES-EDOUARD V2 116 02:09:25 AMCF M
615 201 SURRANS FABIEN V1 160 02:10:30 M
616 200 SURRANS CAROLINE V1 70 02:10:30 F
617 142 MONVILLE MANU V2 117 02:10:39 M
618 141 MONVILLE CAROLINE V1 71 02:10:40 F
619 808 VALONY ODILE V1 72 02:10:47 AMCF F
620 273 LAVOUMA CINDY SE 60 02:10:52 F
621 277 ZENON LOIC SE 135 02:10:52 M
622 551 BARDEL GUY ALBERT V2 118 02:10:55 MAIRIE ST JOSEPH M
623 748 LAYEUX SOPHIA V2 30 02:10:56 FR MORNE PITAULT F
624 646 GRUETTE THIERRY V2 119 02:11:21 M
625 103 FICET CAROLINE SE 61 02:11:24 F
626 600 ENGRY LAETITIA SE 62 02:11:24 RUN 972 F
627 196 FARES HENRI V2 120 02:11:25 M
628 678 GLORIANNE CATHERINE V2 31 02:11:26 F
629 555 TALLY LISE-ANNE V2 32 02:11:27 MANIKOU F
630 438 POINTIER MICHAEL SE 136 02:11:51 M
631 681 DE TESSIERES MARIE SOPHIE V1 73 02:11:58 F
632 573 MONTHEARD DAVID V1 161 02:12:23 M
633 457 MONCI FRANCELINE V2 33 02:12:32 CLUB MANIKOU F
634 471 LOUISOR CORINE V2 34 02:12:40 CLUB MANIKOU F
635 758 BRIGITTE MARIE-DENISE V2 35 02:12:47 F
636 731 LAMAS VeRONIQUE V1 74 02:12:58 F
637 480 EMICA ESTELLE SE 63 02:12:59 F
638 7 TANDAVARAYEN EMMANUEL V3 32 02:13:07 M
639 6 TANDAVARAYEN VIVIANE V3 4 02:13:07 F
640 725 BLANCHET ELENA V1 75 02:13:31 F
641 799 MIRANDE SONIA V1 76 02:13:46 F
642 853 BLASCZYK VERONIQUE V1 77 02:13:52 F
643 774 SUTTER-BARROT ISABELLE V2 36 02:13:55 F
644 546 ROLIN VERONIQUE V2 37 02:14:07 MAIRIE SPORTIVE F
645 519 GERIDAN GABRIEL V2 121 02:14:08 GOLDEN STAR M
646 57 BOULOIS MARC V2 122 02:14:09 M
647 114 PEPELLIN NICOLAS V1 162 02:14:23 M
648 181 RETOUR MYRIAM V1 78 02:14:26 F
649 271 DURMARQUE TEDDY SE 137 02:14:26 M
650 4 MEUNIER CINDY SE 64 02:14:32 F
651 752 SERALINE PAOLA V2 38 02:15:11 F
652 806 JEAN-BAPTISTE GISELE V3 5 02:15:14 TCHIMBE RAID F
653 627 DISY GAELLE SE 65 02:15:21 TEAM PLE F
654 52 DESERT YVON V2 123 02:15:21 M
655 17 NOEMI SANDRINE V1 79 02:15:49 F
656 736 BELLIARD CLAUDINE SE 66 02:15:51 F
657 119 BOULAY GABRIELLE V1 80 02:15:52 F
658 715 MARGUERITE SANDRA V1 81 02:15:55 GOLDEN STAR F
659 472 MADKAUD JEAN-PIERRE V3 33 02:16:06 CLUB MANIKOU M
660 670 GAILLARD GAELLE SE 67 02:16:07 F
661 505 ICHOUA SANDRA SE 68 02:16:10 GOLDEN STAR F
662 856 VAUTOR MURIELLE V2 39 02:17:00 F
663 383 MOTY JEAN-LOUIS V2 124 02:17:06 M
664 56 SHORTIE ANGeLIQUE SE 69 02:17:17 F
665 688 CINNA MIREILLE V1 82 02:17:31 SAM HORIZON 2000 F
666 689 JEREMIE TONY V1 163 02:17:31 SAM HORIZON 2000 M
667 386 TAREAU KARINE V1 83 02:17:50 F
668 336 eLISABETH JOËLLE SE 70 02:18:33 F
669 154 FERRAH NATHALIE V2 40 02:18:42 F
670 258 VETRO CLAUDIE V2 41 02:18:49 F
671 302 MASSEE RACHEL V1 84 02:18:49 F
672 453 GRADUEL ISABELLE V2 42 02:18:54 CLUB MANIKOU F
673 292 BLANC MIREILLE V2 43 02:19:02 F
674 291 KLINCKEMAILLIe VINCENT SE 138 02:19:02 M
675 660 CARNIER LAURA SE 71 02:19:18 F
676 548 ALFRED NICOLE V1 85 02:20:09 MAIRIE SPORTIVE F
677 867 LUX ADELINE SE 72 02:20:10 F
678 751 OZIER MICKAEL ESDRA SE 139 02:20:15 M
679 86 KELLER OLIVIER V1 164 02:20:18 M
680 60 GUIOSE HENRI V2 125 02:20:30 M
681 696 MARIE SAINTE DEBORAH SE 73 02:20:46 F
682 645 MEZEN AGNČS SE 74 02:20:47 F
683 852 GARCON ANNAELLE JU 2 02:20:50 TI BAROUDE F
684 47 LESDEMA KARINE V1 86 02:21:03 F
685 109 OGER TIPHAINE SE 75 02:21:11 F
686 188 MAILLET SYLVIE V1 87 02:21:12 F
687 174 HARDY ReGINA V1 88 02:21:12 F
688 140 LERVAT TOMMY CA 3 02:21:13 M
689 686 NAZAIRE JESSICA SE 76 02:21:29 F
690 32 FRANCOIS-ENDELMONT PATRICIA SE 77 02:21:35 F
691 195 EUPHRASIE ANNICK V2 44 02:21:43 F
692 96 BONHEUR BRUNO V1 165 02:21:47 M
693 80 EDOUARD CLARA SE 78 02:21:47 F
694 387 BAPTISTE ALAIN SE 140 02:22:33 M
695 437 DI GERONIMO Benedicte V1 89 02:22:43 F
696 251 GUERIN ELISE V1 90 02:22:51 F
697 308 PRIVAT LAETITIA SE 79 02:22:53 F
698 197 LEFEVRE SYLVIE V2 45 02:23:02 F
699 321 ALIBO JEAN-LOUIS CHANTAL V2 46 02:23:07 F
700 831 BIGAND NATHALIE V1 91 02:23:28 F
701 426 COCHARD FABIOLA EMMANUELLE V1 92 02:23:28 F
702 614 PIGNOL JEROME V1 166 02:23:30 TCHIMBE RAID M
703 854 ROGES JACQUELINE V2 47 02:23:51 F
704 508 YANG-TING GABY V2 126 02:24:15 GOLDEN STAR M
705 494 LONDE FLORENCE SE 80 02:24:18 GOLDEN STAR F
706 476 CITON OLIVIER V1 167 02:24:27 CLUB SPORTIF MILITAIRE DE MARTINIQUE M
707 361 CHARRIOT SEBASTIEN SE 141 02:24:27 M
708 360 RAMIA JORDI SE 142 02:24:27 M
709 314 ROMANA ZeLINE SE 81 02:24:27 F
710 31 COURJOL GUY V3 34 02:24:47 M
711 439 HAUTEVILLE LAURIANNE V2 48 02:24:47 CENTRE CULTUREL PETIT BAMBOU F
712 849 LAVENAIRE PASCALE V2 49 02:24:59 F
713 355 METZ STePHAN V1 168 02:25:01 M
714 50 AUGUSTINE PHILIPPE V1 169 02:25:19 M
715 721 VICTOIRE YVETTE V1 93 02:25:20 F
716 75 LE NUE RACHEL SE 82 02:25:30 F
717 216 LECLAIRE LAETITIA SE 83 02:25:49 F
718 187 MAILLET ERIC V2 127 02:25:49 M
719 289 DE LAFARGUE KRYSTEL SE 84 02:25:54 F
720 290 LUCIATHE DEBORAH SE 85 02:25:54 F
721 658 BONFEUILLE CHANTALE V2 50 02:26:18 F
722 695 DUPOUY MERYL SE 86 02:26:30 F
723 294 PIERRE LOUIS LUDOVIC SE 143 02:26:30 M
724 15 LOUZE LAURA V2 51 02:27:22 F
725 445 LOUZE KATIE V1 94 02:27:23 CLUB MANIKOU F
726 735 CHARI ELODIE SE 87 02:27:28 F
727 329 SELOI CORINNE V1 95 02:27:33 F
728 330 CAPOUL MARIE-RAPHAELLE V2 52 02:27:34 F
729 848 FANCOIS-HAUGRIN AXELLE SE 88 02:27:39 US ROBERT F
730 844 LIMET LAETITIA SE 89 02:27:40 F
731 136 MARCOMBES ANNE-LISE SE 90 02:27:41 F
732 105 BERTAILLES ALEXANDRA V1 96 02:27:51 F
733 113 PEPELLIN MARILYNE V1 97 02:27:51 F
734 698 LEGER ROMAIN V1 170 02:28:04 M
735 491 EUGENIE CATHY V2 53 02:28:50 GOLDEN STAR F
736 794 PENVEN RONAN V1 171 02:29:59 M
737 740 PENVEN SYLVIE V1 98 02:29:59 F
738 39 MARVEAUX DOMINIQUE V2 54 02:30:18 F
739 812 FRANCILLETTE REGINE V1 99 02:30:45 MAD ANBA BWA F
740 266 NAVARRO DOMINIQUE V1 100 02:31:15 F
741 771 RAFFRAY PATRICIA V2 55 02:31:27 F
742 325 MICHEL-ETIENNE GINA SE 91 02:31:40 F
743 296 BELLUZZO ALFRED V2 128 02:31:59 M
744 256 HIRO TITAINA SE 92 02:32:15 F
745 796 AURRY LAURENCE V2 56 02:32:30 F
746 297 BELLUZZO PILAR V3 6 02:32:59 F
747 370 POLIDORO CHRISTELLE SE 93 02:33:42 F
748 33 NABOR VALERIE SE 94 02:34:12 F
749 841 CHARRON SERGE V2 129 02:35:10 M
750 454 COUFFE VALERIE SE 95 02:35:56 CLUB MANIKOU F
751 129 MARGUERITE FRANTZE V1 101 02:35:57 F
752 122 DORCHIES STePHANIE V1 102 02:36:14 F
753 507 ELISEE JOCELYNE V2 57 02:36:32 GOLDEN STAR F
754 245 JEAN MARIE CELINE SE 96 02:36:51 F
755 458 JULIEN ISABELLE V2 58 02:37:53 CLUB MANIKOU F
756 130 BERTINER BEATRICE V1 103 02:38:06 F
757 788 BAKER RITA SE 97 02:38:09 GOLDEN STAR F
758 73 DALLE CECILE V1 104 02:38:21 F
759 315 WEHRLE LIVIANE V1 105 02:39:00 F
760 469 POCQUET NELLY V1 106 02:39:01 CLUB MANIKOU F
761 768 BOUTARD AXELLE V1 107 02:40:23 F
762 767 DEVOS SAMIA V1 108 02:40:24 F
763 166 MANCIET INDIANA V2 59 02:40:55 F
764 37 MARIE-JEANNE JOCELYNE V2 60 02:41:30 F
765 829 ?Dossard #829 SE 144 02:41:35 M
766 398 AZEAU KARINE V1 109 02:42:33 F
767 303 ETIENNE NOTTE YANNICK V1 110 02:44:32 F
768 309 LOUISON-FRANCOIS LYDIE SE 98 02:44:33 F
769 287 CANEVY NAJADE ES 1 02:44:38 F
770 102 VICTOIRE BRIGITTE SE 99 02:45:54 F
771 192 RABOUT HELENE V1 111 02:47:48 F
772 570 DESERABLE SOPHIE SE 100 02:49:25 MARINE F
773 565 AUBIN MAUDE V1 112 02:49:25 MARINE F
774 99 ROLLE LAURIE SE 101 02:55:06 F
775 108 SAINT-AIMe STePHANIE SE 102 02:55:25 F
776 167 FILADELFIA PHILIPPE V3 35 02:57:06 M
777 676 BOUBOUILLE FRANCETTE V2 61 02:58:42 F
778 786 POLIMIS CONSTANCE V3 7 03:00:46 SILVER STAR F
779 544 CAROLE MYLENE V1 113 03:00:48 MAIRIE SPORTIVE F
780 334 PROTHERY ISABELLE V2 62 03:02:10 F
781 243 COURTEIX MYRIAM SE 103 03:02:10 F
782 152 CAROLE SABRINA SE 104 03:03:15 F
783 566 GAZET NATHALIE V1 114 03:08:15 MARINE F
784 690 RUSTI MARIE-NOËLLE V3 8 03:09:13 F
785 27 HOUDET BAKI V3 9 03:09:13 F
786 322 HODEBOURG MARC-EDOUARD SE 145 03:11:26 M
787 323 PORFAL JOELLE SE 105 03:11:27 F
788 462 LOBAS DOMINIQUE V1 115 03:38:59 CLUB MANIKOU F